Flag Weather past 2 weeks in Pasadena, California, U.S.A.

Now
65 °F

Clear.


Feels Like: 65 °F
Forecast: 52 / 72 °F
Wind: 5 mph from South

Location: Burbank-Glendale-Pasadena Airport

Current Time: Nov 21, 2014 at 7:07:03 PM

Latest Report: Nov 21, 2014 at 5:53 PM


Visibility: 10 mi

Pressure: 29.96 "Hg

Humidity: 47%

Dew point: 44 °F

Location of PasadenaLocation

Historic Weather in Pasadena — Graph

°F

Pasadena temperature yesterday

Maximum temperature yesterday: 68 °F (at 1:53 PM)
Minimum temperature yesterday: 48 °F (at 5:53 AM)
Average temperature yesterday: 59 °F

Past Weeks' High & Low Weather Summary

 TemperatureHumidityPressure
High91 °F (Nov 8, 1:53 PM)90% (Nov 21, 4:53 AM)30.15 "Hg (Nov 21, 4:53 AM)
Low48 °F (Nov 20, 5:53 AM)2% (Nov 16, 12:53 PM)29.78 "Hg (Nov 9, 4:53 PM)
Average64 °F49%29.99 "Hg
* Reported Nov 6 5:53 PM — Nov 21 5:53 PM, Pasadena, Weather by CustomWeather, © 2014

Note: Actual official high and low records may vary slightly from our data, if they occured in-between our weather recording intervals... More about our weather records

Advertising

Pasadena weather history for previous 24 hours

 ConditionsComfort  
Time TempWeatherWind HumidityBarometerVisibility
5:53 PM
Nov 21
65 °FClear.5 mph47%29.96 "Hg10 mi
4:53 PM67 °FClear.No wind41%29.93 "Hg10 mi
3:53 PM69 °FSunny.7 mph38%29.91 "Hg10 mi
2:53 PM70 °FSunny.7 mph38%29.90 "Hg10 mi
1:53 PM70 °FSunny.12 mph41%29.89 "Hg10 mi
12:53 PM73 °FSunny.13 mph30%29.89 "Hg10 mi
11:53 AM73 °FSunny.3 mph28%29.91 "Hg10 mi
10:53 AM68 °FSunny.12 mph36%29.93 "Hg10 mi
9:53 AM65 °FSunny.10 mph42%29.94 "Hg10 mi
8:53 AM63 °FSunny.9 mph48%29.94 "Hg10 mi
7:53 AM60 °FSunny.9 mph58%29.93 "Hg10 mi
6:53 AM56 °FSunny.6 mph70%29.92 "Hg10 mi
5:53 AM53 °FClear.5 mph89%29.91 "Hg10 mi
4:53 AM54 °FClear.3 mph90%29.89 "Hg10 mi
3:53 AM55 °FClear.3 mph87%29.90 "Hg10 mi
2:53 AM56 °FPassing clouds.No wind87%29.91 "Hg10 mi
1:53 AM57 °FPassing clouds.No wind87%29.92 "Hg10 mi
12:53 AM59 °FPartly cloudy.No wind84%29.93 "Hg10 mi
11:53 PM
Nov 20
59 °FOvercast.No wind84%29.95 "Hg10 mi
10:53 PM59 °FPassing clouds.No wind84%29.94 "Hg10 mi
9:53 PM61 °FMostly cloudy.5 mph75%29.94 "Hg10 mi
8:53 PM62 °FPassing clouds.3 mph70%29.96 "Hg10 mi
7:53 PM62 °FMostly cloudy.7 mph70%29.97 "Hg10 mi
Weather by CustomWeather, © 2014

See weather overviewHow to use our weather pages